Weather History for Arctic Village, AK

Change the Weather History Date:

Sunday, August 31, 2014

  Actual Average Record
Temperature  
Mean Temperature 35 °F -  
Max Temperature 42 °F 53 °F 65 °F (1991)
Min Temperature 28 °F 31 °F 23 °F (1971)
Degree Days  
Heating Degree Days 30    
Moisture  
Dew Point 25 °F    
Average Humidity 63    
Maximum Humidity 93    
Minimum Humidity 42    
Precipitation  
Precipitation 0.00 in - - ()
Sea Level Pressure  
Sea Level Pressure 29.60 in    
Wind  
Wind Speed 8 mph (SW)    
Max Wind Speed 18 mph    
Max Gust Speed 23 mph    
Visibility 10 miles    
Events      
Averages and records for this station are not official NWS values.
T = Trace of Precipitation, MM = Missing Value Source: NWS Daily Summary

Daily Weather History Graph

Daily Weather History Graph

Search for Another Location

Airport:

Trip Planner

Search our weather history database for the weather conditions in past years. The results will help you decide how hot, cold, wet, or windy it might be!

Date:

Astronomy

Aug. 31, 2014 Rise Set
Actual Time 6:05 AM AKDT 9:17 PM AKDT
Civil Twilight 4:58 AM AKDT 10:23 PM AKDT
Nautical Twilight 3:02 AM AKDT 12:13 AM AKDT
Astronomical Twilight Sun does not rise Sun does not rise
Moon 3:09 PM AKDT (8/31) 9:27 PM AKDT (8/31)
Length of Visible Light 17h 25m
Length of Day
15h 12m
Waxing Crescent, 33% of the Moon is Illuminated
Aug 31
Waxing Crescent
Sep 2
First Quarter
Sep 8
Full
Sep 15
Last Quarter
Sep 23
New

Hourly Weather History & Observations

Time (AKDT) Temp. Windchill Dew Point Humidity Pressure Visibility Wind Dir Wind Speed Gust Speed Precip Events Conditions
12:16 AM 37.4 °F 30.8 °F 24.8 °F 60% 29.56 in 10.0 mi SW 9.2 mph - N/A   Partly Cloudy
12:36 AM 35.6 °F 29.2 °F 26.6 °F 70% 29.56 in 10.0 mi West 8.1 mph - N/A   Mostly Cloudy
12:56 AM 35.6 °F 30.7 °F 24.8 °F 65% 29.56 in 10.0 mi WSW 5.8 mph - N/A   Overcast
1:16 AM 35.6 °F 31.7 °F 24.8 °F 65% 29.56 in 10.0 mi SW 4.6 mph - N/A   Overcast
1:36 AM 35.6 °F 31.7 °F 24.8 °F 65% 29.56 in 10.0 mi SW 4.6 mph - N/A   Overcast
1:56 AM 33.8 °F 27.7 °F 26.6 °F 75% 29.57 in 10.0 mi SSE 6.9 mph - N/A   Overcast
2:16 AM 33.8 °F 27.7 °F 26.6 °F 75% 29.57 in 10.0 mi South 6.9 mph - N/A   Overcast
2:36 AM 33.8 °F 27.7 °F 26.6 °F 75% 29.57 in 10.0 mi South 6.9 mph - N/A   Overcast
2:56 AM 33.8 °F 28.6 °F 24.8 °F 70% 29.57 in 10.0 mi South 5.8 mph - N/A   Overcast
3:16 AM 32.0 °F 28.7 °F 24.8 °F 75% 29.57 in 10.0 mi South 3.5 mph - N/A   Scattered Clouds
3:36 AM 32.0 °F 28.7 °F 24.8 °F 75% 29.57 in 10.0 mi South 3.5 mph - N/A   Clear
3:56 AM 32.0 °F 27.5 °F 26.6 °F 80% 29.57 in 10.0 mi South 4.6 mph - N/A   Clear
4:16 AM 30.2 °F 26.7 °F 24.8 °F 80% 29.58 in 10.0 mi South 3.5 mph - N/A   Clear
4:36 AM 30.2 °F 25.4 °F 24.8 °F 80% 29.58 in 10.0 mi South 4.6 mph - N/A   Clear
4:56 AM 30.2 °F 25.4 °F 26.6 °F 86% 29.58 in 10.0 mi South 4.6 mph - N/A   Clear
5:16 AM 30.2 °F 25.4 °F 24.8 °F 80% 29.58 in 10.0 mi South 4.6 mph - N/A   Clear
5:36 AM 28.4 °F 23.3 °F 24.8 °F 86% 29.58 in 10.0 mi South 4.6 mph - N/A   Clear
5:56 AM 28.4 °F 23.3 °F 24.8 °F 86% 29.58 in 10.0 mi SW 4.6 mph - N/A   Clear
6:16 AM 28.4 °F 24.6 °F 24.8 °F 86% 29.58 in 10.0 mi SSW 3.5 mph - N/A   Clear
6:36 AM 28.4 °F - 24.8 °F 86% 29.59 in 10.0 mi Calm Calm - N/A   Clear
6:56 AM 28.4 °F - 24.8 °F 86% 29.59 in 10.0 mi Calm Calm - N/A   Clear
7:16 AM 28.4 °F - 26.6 °F 93% 29.59 in 10.0 mi Calm Calm - N/A   Clear
7:36 AM 28.4 °F - 26.6 °F 93% 29.60 in 10.0 mi Calm Calm - N/A   Clear
7:56 AM 30.2 °F 26.7 °F 26.6 °F 86% 29.60 in 10.0 mi SW 3.5 mph - N/A   Clear
8:16 AM 30.2 °F 25.4 °F 24.8 °F 80% 29.60 in 10.0 mi SW 4.6 mph - N/A   Clear
8:36 AM 32.0 °F 26.4 °F 24.8 °F 75% 29.60 in 10.0 mi SSW 5.8 mph - N/A   Clear
8:56 AM 32.0 °F 24.8 °F 24.8 °F 75% 29.60 in 10.0 mi SW 8.1 mph - N/A   Clear
9:16 AM 33.8 °F 27.0 °F 24.8 °F 70% 29.61 in 10.0 mi SW 8.1 mph - N/A   Clear
9:36 AM 33.8 °F 26.4 °F 24.8 °F 70% 29.60 in 10.0 mi WSW 9.2 mph - N/A   Clear
9:56 AM 33.8 °F 25.8 °F 24.8 °F 70% 29.61 in 10.0 mi WSW 10.4 mph - N/A   Clear
10:16 AM 35.6 °F 28.6 °F 24.8 °F 65% 29.61 in 10.0 mi SW 9.2 mph - N/A   Clear
10:36 AM 35.6 °F 28.6 °F 26.6 °F 70% 29.61 in 10.0 mi SW 9.2 mph - N/A   Clear
10:56 AM 37.4 °F 30.8 °F 26.6 °F 65% 29.61 in 10.0 mi SW 9.2 mph - N/A   Clear
11:16 AM 37.4 °F 30.8 °F 26.6 °F 65% 29.61 in 10.0 mi SW 9.2 mph - N/A   Clear
11:36 AM 37.4 °F 30.8 °F 24.8 °F 60% 29.61 in 10.0 mi SW 9.2 mph - N/A   Clear
11:56 AM 39.2 °F 33.0 °F 23.0 °F 52% 29.62 in 10.0 mi SW 9.2 mph - N/A   Clear
12:16 PM 39.2 °F 33.0 °F 24.8 °F 56% 29.62 in 10.0 mi SW 9.2 mph - N/A   Clear
12:36 PM 39.2 °F 33.0 °F 24.8 °F 56% 29.62 in 10.0 mi SW 9.2 mph - N/A   Clear
12:56 PM 41.0 °F 35.2 °F 23.0 °F 49% 29.62 in 10.0 mi SW 9.2 mph - N/A   Clear
1:16 PM 41.0 °F 36.4 °F 23.0 °F 49% 29.62 in 10.0 mi SW 6.9 mph - N/A   Clear
1:36 PM 42.8 °F 38.6 °F 23.0 °F 46% 29.62 in 10.0 mi SSW 6.9 mph - N/A   Mostly Cloudy
1:56 PM 42.8 °F 36.2 °F 23.0 °F 46% 29.62 in 10.0 mi WSW 12.7 mph 16.1 mph N/A   Overcast
2:16 PM 42.8 °F 37.0 °F 23.0 °F 46% 29.62 in 10.0 mi WSW 10.4 mph 17.3 mph N/A   Overcast
2:36 PM 42.8 °F 35.1 °F 24.8 °F 49% 29.62 in 10.0 mi WSW 16.1 mph 21.9 mph N/A   Overcast
2:56 PM 42.8 °F 35.4 °F 24.8 °F 49% 29.62 in 10.0 mi WSW 15.0 mph - N/A   Overcast
3:16 PM 42.8 °F 35.8 °F 21.2 °F 42% 29.62 in 10.0 mi WSW 13.8 mph - N/A   Overcast
3:36 PM 42.8 °F 35.1 °F 23.0 °F 46% 29.62 in 10.0 mi SW 16.1 mph 21.9 mph N/A   Overcast
3:56 PM 42.8 °F 36.6 °F 24.8 °F 49% 29.62 in 10.0 mi SW 11.5 mph 20.7 mph N/A   Overcast
4:16 PM 42.8 °F 35.4 °F 24.8 °F 49% 29.62 in 10.0 mi WSW 15.0 mph 18.4 mph N/A   Overcast
4:36 PM 42.8 °F 35.8 °F 24.8 °F 49% 29.62 in 10.0 mi WSW 13.8 mph 19.6 mph N/A   Overcast
4:56 PM 42.8 °F 34.8 °F 24.8 °F 49% 29.62 in 10.0 mi WSW 17.3 mph 21.9 mph N/A   Overcast
5:16 PM 42.8 °F 35.4 °F 24.8 °F 49% 29.62 in 10.0 mi SW 15.0 mph 21.9 mph N/A   Mostly Cloudy
5:36 PM 42.8 °F 34.5 °F 24.8 °F 49% 29.62 in 10.0 mi WSW 18.4 mph 23.0 mph N/A   Clear
5:56 PM 42.8 °F 36.2 °F 24.8 °F 49% 29.62 in 10.0 mi SW 12.7 mph 19.6 mph N/A   Clear
6:16 PM 42.8 °F 35.8 °F 24.8 °F 49% 29.62 in 10.0 mi SW 13.8 mph 18.4 mph N/A   Clear
6:36 PM 42.8 °F 34.5 °F 21.2 °F 42% 29.62 in 10.0 mi WSW 18.4 mph - N/A   Clear
6:56 PM 42.8 °F 37.5 °F 21.2 °F 42% 29.62 in 10.0 mi WSW 9.2 mph - N/A   Clear
7:16 PM 41.0 °F 34.7 °F 19.4 °F 42% 29.62 in 10.0 mi WSW 10.4 mph - N/A   Clear
7:36 PM 41.0 °F 34.3 °F 21.2 °F 45% 29.63 in 10.0 mi SW 11.5 mph - N/A   Scattered Clouds
7:56 PM 41.0 °F 34.7 °F 23.0 °F 49% 29.62 in 10.0 mi SW 10.4 mph 19.6 mph N/A   Mostly Cloudy
8:16 PM 39.2 °F 32.5 °F 23.0 °F 52% 29.62 in 10.0 mi SW 10.4 mph 17.3 mph N/A   Overcast
8:36 PM 39.2 °F 32.5 °F 24.8 °F 56% 29.62 in 10.0 mi SW 10.4 mph - N/A   Overcast
8:56 PM 39.2 °F 32.5 °F 24.8 °F 56% 29.62 in 10.0 mi SW 10.4 mph - N/A   Overcast
9:16 PM 39.2 °F 34.2 °F 24.8 °F 56% 29.62 in 10.0 mi SW 6.9 mph - N/A   Overcast
9:36 PM 39.2 °F 33.6 °F 24.8 °F 56% 29.62 in 10.0 mi SW 8.1 mph - N/A   Overcast
9:56 PM 37.4 °F 30.8 °F 24.8 °F 60% 29.62 in 10.0 mi SW 9.2 mph - N/A   Mostly Cloudy
10:16 PM 37.4 °F 30.8 °F 24.8 °F 60% 29.62 in 10.0 mi SW 9.2 mph - N/A   Mostly Cloudy
10:36 PM 37.4 °F 31.4 °F 24.8 °F 60% 29.62 in 10.0 mi West 8.1 mph - N/A   Mostly Cloudy
10:56 PM 35.6 °F 29.2 °F 24.8 °F 65% 29.62 in 10.0 mi West 8.1 mph - N/A   Partly Cloudy
11:16 PM 33.8 °F 27.7 °F 24.8 °F 70% 29.62 in 10.0 mi West 6.9 mph - N/A   Clear
11:36 PM 33.8 °F 27.0 °F 23.0 °F 65% 29.62 in 10.0 mi West 8.1 mph - N/A   Clear
11:56 PM 33.8 °F 27.7 °F 24.8 °F 70% 29.62 in 10.0 mi West 6.9 mph - N/A   Partly Cloudy